Home > Weather > Lustenau > Past weeks

Flag for Austria Past Weather in Lustenau, Vorarlberg, Austria — Yesterday and Last 2 Weeks

Now
66 °F

Partly cloudy.


Feels Like: 66 °F
Forecast: 62 / 83 °F
Wind: 5 mph from Southeast

Location: Saint Gallen-Altenrhein

Current Time: Jul 28, 2016 at 3:00:31 AM

Latest Report: Jul 28, 2016 at 2:20 AM


Visibility: N/A

Pressure: 30.12 "Hg

Humidity: 73%

Dew Point: 57 °F

Location of LustenauLocation

Past Weather in Lustenau — Graph

°F

Lustenau Temperature Yesterday

Maximum temperature yesterday: 75 °F (at 1:50 PM)
Minimum temperature yesterday: 64 °F (at 3:20 AM)
Average temperature yesterday: 69 °F

High & Low Weather Summary for the Past Weeks

 TemperatureHumidityPressure
High88 °F (Jul 20, 5:20 PM)100% (Jul 16, 3:20 AM)30.36 "Hg (Jul 16, 3:20 AM)
Low48 °F (Jul 16, 2:50 AM)25% (Jul 20, 4:20 PM)29.95 "Hg (Jul 21, 1:50 AM)
Average67 °F75%30.13 "Hg
* Reported Jul 13 1:20 AM — Jul 28 1:50 AM, Lustenau, Weather by CustomWeather, © 2016

Note: Actual official high and low records may vary slightly from our data, if they occured in-between our weather recording intervals... More about our weather records

Advertising

Lustenau Weather History for the Previous 24 Hours

Scroll right to see more
 ConditionsComfort  
Time TempWeatherWind HumidityBarometerVisibility
1:50 AM
Thu, Jul 28
66 °FPartly cloudy.6 mph73%30.12 "HgN/A
1:20 AM66 °FPassing clouds.5 mph78%30.12 "HgN/A
12:50 AM64 °FOvercast.5 mph83%30.12 "HgN/A
12:20 AM64 °FPassing clouds.9 mph88%30.12 "HgN/A
11:50 PM
Wed, Jul 27
68 °FPassing clouds.10 mph73%30.12 "HgN/A
11:20 PM68 °FPassing clouds.7 mph83%30.09 "HgN/A
10:50 PM70 °FThundershowers. Partly cloudy.5 mph78%30.09 "HgN/A
10:20 PM68 °FPassing clouds.3 mph83%30.09 "HgN/A
9:50 PM70 °FBroken clouds.1 mph73%30.07 "HgN/A
9:20 PM70 °FMore clouds than sun.1 mph73%30.07 "Hg1 mi
8:50 PM70 °FPassing clouds.5 mph73%30.07 "HgN/A
8:20 PM72 °FSunny.2 mph69%30.07 "Hg10 mi
7:50 PM73 °FSunny.1 mph74%30.04 "Hg10 mi
7:20 PM73 °FSunny.2 mph69%30.04 "Hg10 mi
6:50 PM73 °FSprinkles. Partly sunny.2 mph78%30.07 "HgN/A
6:20 PM72 °FSprinkles. Partly sunny.5 mph78%30.07 "HgN/A
5:50 PM72 °FSunny.1 mph73%30.07 "Hg10 mi
5:20 PM72 °FThundershowers. Broken clouds.2 mph73%30.07 "HgN/A
4:50 PM72 °FThundershowers. Broken clouds.3 mph69%30.07 "HgN/A
4:20 PM72 °FScattered showers. Partly sunny.6 mph69%30.07 "HgN/A
3:50 PM73 °FScattered showers. Partly sunny.5 mph74%30.07 "HgN/A
3:20 PM70 °FThundershowers. Broken clouds.5 mph83%30.07 "HgN/A
2:50 PM70 °FScattered showers. Broken clouds.2 mph83%30.07 "HgN/A
2:20 PM70 °FScattered showers. Broken clouds.8 mph83%30.09 "HgN/A
1:50 PM75 °FScattered showers. Broken clouds.2 mph78%30.07 "HgN/A
1:20 PM70 °FScattered showers. Broken clouds.5 mph83%30.09 "HgN/A
12:50 PM70 °FPartly sunny.5 mph83%30.09 "HgN/A
12:20 PM70 °FPartly sunny.6 mph83%30.09 "HgN/A
11:50 AM68 °FBroken clouds.6 mph83%30.09 "HgN/A
11:20 AM70 °FBroken clouds.7 mph78%30.12 "HgN/A
10:50 AM70 °FBroken clouds.6 mph78%30.09 "HgN/A
10:20 AM70 °FBroken clouds.6 mph83%30.09 "HgN/A
9:50 AM70 °FBroken clouds.6 mph83%30.09 "HgN/A
9:20 AM70 °FPartly sunny.7 mph83%30.09 "HgN/A
8:50 AM68 °FPassing clouds.2 mph83%30.09 "HgN/A
8:20 AM66 °FPassing clouds.2 mph88%30.09 "HgN/A
7:50 AM66 °FPassing clouds.5 mph88%30.09 "HgN/A
7:20 AM64 °FPassing clouds.2 mph94%30.09 "HgN/A
6:50 AM64 °FPassing clouds.3 mph94%30.09 "HgN/A
6:20 AM64 °FPartly cloudy.3 mph94%30.09 "HgN/A
5:50 AM64 °FMostly cloudy.1 mph94%30.09 "HgN/A
5:20 AM64 °FFog.2 mph94%30.09 "Hg1 mi
4:50 AM66 °FMostly cloudy.2 mph94%30.09 "HgN/A
4:20 AM66 °FOvercast.1 mph94%30.09 "HgN/A
3:50 AM66 °FOvercast.2 mph94%30.09 "HgN/A
3:20 AM64 °FMostly cloudy.1 mph94%30.09 "HgN/A
Weather by CustomWeather, © 2016

See weather overviewHow to use our weather pages